Tracking 22124 objects as of 25-Jan-2021
HD Live streaming from Space Station
objects crossing your sky now

METEOR 2-12

Track METEOR 2-12 now!
10-day predictions
METEOR 2-12 is classified as:


NORAD ID: 15516
Int'l Code: 1985-013A
Perigee: 938.8 km
Apogee: 963.4 km
Inclination: 82.5 °
Period: 103.9 minutes
Semi major axis: 7322 km
RCS: 5.2452 m2 (large)
Launch date: February 6, 1985
Source: Commonwealth of Independent States (former USSR) (CIS)
Launch site: PLESETSK MISSILE AND SPACE COMPLEX (PKMTR)
aabbcc
Your satellite tracking list
Your tracking list is empty




NASA's NSSDC Master Catalog

Two Line Element Set (TLE):
1 15516U 85013A   21025.49263512 -.00000008  00000-0 -20456-4 0  9998
2 15516  82.5314 102.8340 0016774  60.8345 299.4492 13.85645455819151
Source of the keplerian elements: AFSPC